Wednesday, August 20, 2014
22:31 UTC
  |  Log In   |  Register Free
Airport Search:

Richmond Municipal Airport
(KRID)

Richmond Municipal Airport Diagram
No Airport Diagram Available

FAA data valid effective July 24, 2014 until September 18, 2014 (unless otherwise noted).

 
 
 
 
 
 
 
 
 
 
 
 
 
 

Current Aviation Weather for Richmond Municipal Airport (KRID)

The most recent METAR observation for KMWO was updated at: 1835 UTC
METAR Summary (Translated METAR)
KMWO
281835Z AUTO 31013G18KT 10SM SCT037 BKN065 BKN070 24/15 A2996 RMK AO2 T02360149
KMGY
(8.6 nm NE from KMWO)
281753Z AUTO 33012KT 10SM FEW030 OVC060 22/14 A2994 RMK AO2 SLP133 T02220144 10228 20183 51006
TAF
No TAF information found within 50 nm of KMWO
  Airport Weather Conditions for KRID

Current weather conditions are
not available for RID


The nearest NOAA weather station
is at MWO, (24.7 nm SE from RID)
  
 Current Weather at MWO
88° F
Fair
West winds at 4.6 mph
MWO NOAA Radar

Pressure: 29.94 in
Humidity: 49%
Wind: West at 4.6 MPH (4 KT)
Dew Point: 66.9°F
Visibility: 10.00 mi


Airport Weather Forecast for KRID

Translated METAR and TAF for KMWO
Translated METAR for KMWO (2225 UTC 20 August 2014)
found at http://aviationweather.gov/adds/metars/
 
METAR text: KMWO 202215Z AUTO 27005KT 10SM CLR 29/18 A2994 RMK AO2 T02940182
Conditions at: KMWO (MIDDLETOWN/HOOK , OH, US) observed 2215 UTC 20 August 2014
Temperature: 29.4°C (85°F)
Dewpoint: 18.2°C (65°F) [RH = 51%]
Pressure (altimeter): 29.94 inches Hg (1014.0 mb)
Winds: from the W (270 degrees) at 6 MPH (5 knots; 2.6 m/s)
Visibility: 10 or more miles (16+ km)
Ceiling: at least 12,000 feet AGL
Clouds: sky clear below 12,000 feet AGL
Weather: automated observation with no human augmentation;
there may or may not be significant weather present at this time
Translated TAF for KMWO

There is no translated TAF available for this airport

Find All Airport Services Find A Hotel Find A Rental Car Find A Golf Course Find A Restaurant $100 Hamburger



FBO's on the Field
FBO Company Facility Photos Services Transportation Aviation Fuel Prices: Prices include tax
Catering Weather Repair Courtesy Rental Type 100LL JetA JetA+ MOGAS 8087
 
Richmond Municipal Airport

This FBO has not yet been rated
FS:Phillips66
Last Updated: Aug-12
Login to update fuel prices
SS:
Contact Richmond Municipal AirportMore FBO Information
 
Add another FBO Facility Photos Catering Weather Repair Courtesy Rental Type 100LL JetA JetA+ MOGAS 8087
Services Transportation Aviation Fuel Prices: Prices include tax


GlobalAir.com Airport Resource Center model-print
model-print
model-print
model-print